Stündliche Wetter Homichi

Heute, 25 Juni, Freitag

Zeit Temperatur Niederschläge Wind Luftdruck Luftfeuchtigkeit
00:00 +22°C° 0.4 mm 3 m/S 750 mmHg 78%
01:00 +21°C° 0.4 mm 2 m/S 750 mmHg 82%
02:00 +21°C° 0.4 mm 1 m/S 750 mmHg 87%
03:00 +22°C° 0.3 mm 1 m/S 750 mmHg 87%
04:00 +21°C° 0.3 mm 2 m/S 749 mmHg 87%
05:00 +21°C° 0.3 mm 2 m/S 749 mmHg 87%
06:00 +23°C° 0.4 mm 2 m/S 749 mmHg 84%
07:00 +25°C° 0.4 mm 3 m/S 749 mmHg 81%
08:00 +26°C° 0.4 mm 3 m/S 749 mmHg 77%
09:00 +28°C° 0 mm 3 m/S 749 mmHg 71%
10:00 +30°C° 0 mm 3 m/S 749 mmHg 64%
11:00 +33°C° 0 mm 3 m/S 749 mmHg 57%
12:00 +33°C° 0 mm 3 m/S 749 mmHg 54%
13:00 +34°C° 0 mm 3 m/S 749 mmHg 51%
14:00 +35°C° 0 mm 3 m/S 748 mmHg 47%
15:00 +35°C° 0 mm 3 m/S 748 mmHg 49%
16:00 +34°C° 0 mm 3 m/S 747 mmHg 52%
17:00 +34°C° 0 mm 3 m/S 747 mmHg 54%
18:00 +30°C° 1.3 mm 3 m/S 747 mmHg 65%
19:00 +26°C° 1.3 mm 3 m/S 747 mmHg 76%
20:00 +22°C° 1.3 mm 4 m/S 748 mmHg 88%
21:00 +21°C° 1.3 mm 3 m/S 748 mmHg 89%
22:00 +20°C° 1.3 mm 3 m/S 748 mmHg 91%
23:00 +20°C° 1.3 mm 3 m/S 749 mmHg 92%

Morgen, 26 Juni, Samstag

Zeit Temperatur Niederschläge Wind Luftdruck Luftfeuchtigkeit
00:00 +19°C° 0 mm 2 m/S 748 mmHg 93%
01:00 +19°C° 0 mm 2 m/S 747 mmHg 94%
02:00 +19°C° 0 mm 2 m/S 747 mmHg 94%
03:00 +19°C° 0 mm 2 m/S 747 mmHg 94%
04:00 +19°C° 0 mm 2 m/S 748 mmHg 94%
05:00 +19°C° 0 mm 2 m/S 748 mmHg 93%
06:00 +20°C° 0 mm 2 m/S 748 mmHg 88%
07:00 +23°C° 0 mm 2 m/S 748 mmHg 82%
08:00 +24°C° 0 mm 2 m/S 748 mmHg 76%
09:00 +25°C° 0 mm 2 m/S 748 mmHg 70%
10:00 +27°C° 0 mm 2 m/S 748 mmHg 64%
11:00 +28°C° 0 mm 2 m/S 748 mmHg 58%
12:00 +29°C° 0 mm 2 m/S 748 mmHg 57%
13:00 +29°C° 0 mm 2 m/S 748 mmHg 55%
14:00 +30°C° 0 mm 2 m/S 748 mmHg 53%
15:00 +30°C° 0 mm 2 m/S 748 mmHg 56%
16:00 +30°C° 0 mm 2 m/S 748 mmHg 58%
17:00 +29°C° 0 mm 2 m/S 747 mmHg 60%
18:00 +27°C° 1.1 mm 2 m/S 747 mmHg 70%
19:00 +25°C° 1.1 mm 3 m/S 748 mmHg 80%
20:00 +22°C° 1.1 mm 3 m/S 748 mmHg 91%
21:00 +21°C° 2.2 mm 3 m/S 748 mmHg 93%
22:00 +21°C° 2.2 mm 3 m/S 748 mmHg 95%
23:00 +20°C° 2.2 mm 3 m/S 748 mmHg 97%

übermorgen, 27 Juni, Sonntag

Zeit Temperatur Niederschläge Wind Luftdruck Luftfeuchtigkeit
00:00 +20°C° 1 mm 3 m/S 748 mmHg 97%
01:00 +20°C° 1 mm 3 m/S 748 mmHg 97%
02:00 +19°C° 1 mm 3 m/S 748 mmHg 96%
03:00 +19°C° 0.2 mm 3 m/S 748 mmHg 96%
04:00 +19°C° 0.2 mm 2 m/S 748 mmHg 96%
05:00 +19°C° 0.2 mm 2 m/S 748 mmHg 96%
06:00 +19°C° 0.4 mm 3 m/S 748 mmHg 96%
07:00 +19°C° 0.4 mm 3 m/S 748 mmHg 95%
08:00 +19°C° 0.4 mm 3 m/S 749 mmHg 95%
09:00 +20°C° 0.1 mm 4 m/S 749 mmHg 91%
10:00 +20°C° 0.1 mm 4 m/S 749 mmHg 88%
11:00 +21°C° 0.1 mm 4 m/S 749 mmHg 85%
12:00 +22°C° 0.1 mm 4 m/S 749 mmHg 81%
13:00 +22°C° 0.1 mm 4 m/S 749 mmHg 77%
14:00 +23°C° 0.1 mm 4 m/S 749 mmHg 74%
15:00 +23°C° 0 mm 4 m/S 749 mmHg 72%
16:00 +25°C° 0 mm 3 m/S 749 mmHg 71%
17:00 +25°C° 0 mm 3 m/S 748 mmHg 69%
18:00 +24°C° 0 mm 3 m/S 748 mmHg 75%
19:00 +22°C° 0 mm 3 m/S 748 mmHg 80%
20:00 +21°C° 0 mm 2 m/S 748 mmHg 86%
21:00 +20°C° 0 mm 2 m/S 748 mmHg 88%
22:00 +19°C° 0 mm 2 m/S 749 mmHg 91%
23:00 +18°C° 0 mm 2 m/S 749 mmHg 93%

28 Juni, Montag

Zeit Temperatur Niederschläge Wind Luftdruck Luftfeuchtigkeit
00:00 +18°C° 0 mm 3 m/S 749 mmHg 93%
01:00 +18°C° 0 mm 3 m/S 749 mmHg 92%
02:00 +17°C° 0 mm 3 m/S 749 mmHg 92%
03:00 +17°C° 0 mm 3 m/S 749 mmHg 90%
04:00 +17°C° 0 mm 3 m/S 749 mmHg 89%
05:00 +17°C° 0 mm 3 m/S 749 mmHg 88%
06:00 +18°C° 0 mm 3 m/S 749 mmHg 83%
07:00 +20°C° 0 mm 4 m/S 749 mmHg 78%
08:00 +21°C° 0 mm 4 m/S 749 mmHg 73%
09:00 +23°C° 0 mm 4 m/S 749 mmHg 68%
10:00 +25°C° 0 mm 4 m/S 749 mmHg 63%
11:00 +26°C° 0 mm 4 m/S 749 mmHg 59%
12:00 +26°C° 0 mm 4 m/S 749 mmHg 57%
13:00 +26°C° 0 mm 4 m/S 749 mmHg 55%
14:00 +27°C° 0 mm 4 m/S 749 mmHg 53%
15:00 +26°C° 0 mm 4 m/S 749 mmHg 58%
16:00 +25°C° 0 mm 4 m/S 749 mmHg 62%
17:00 +24°C° 0 mm 3 m/S 748 mmHg 67%
18:00 +22°C° 0 mm 3 m/S 748 mmHg 70%
19:00 +22°C° 0 mm 3 m/S 748 mmHg 72%
20:00 +21°C° 0 mm 3 m/S 748 mmHg 75%
21:00 +20°C° 0 mm 3 m/S 748 mmHg 76%
22:00 +20°C° 0 mm 3 m/S 748 mmHg 77%
23:00 +19°C° 0 mm 3 m/S 748 mmHg 78%

29 Juni, Dienstag

Zeit Temperatur Niederschläge Wind Luftdruck Luftfeuchtigkeit
00:00 +18°C° 0 mm 3 m/S 748 mmHg 82%
01:00 +17°C° 0 mm 3 m/S 748 mmHg 86%
02:00 +17°C° 0 mm 3 m/S 748 mmHg 90%
03:00 +16°C° 0 mm 3 m/S 747 mmHg 90%
04:00 +16°C° 0 mm 3 m/S 747 mmHg 90%
05:00 +16°C° 0 mm 3 m/S 747 mmHg 90%
06:00 +18°C° 0 mm 4 m/S 747 mmHg 83%
07:00 +19°C° 0 mm 4 m/S 747 mmHg 77%
08:00 +21°C° 0 mm 4 m/S 747 mmHg 71%
09:00 +22°C° 0 mm 5 m/S 747 mmHg 65%
10:00 +25°C° 0 mm 5 m/S 747 mmHg 59%
11:00 +26°C° 0 mm 5 m/S 747 mmHg 53%
12:00 +26°C° 0.1 mm 5 m/S 747 mmHg 54%
13:00 +26°C° 0.1 mm 5 m/S 746 mmHg 55%
14:00 +26°C° 0.1 mm 4 m/S 746 mmHg 56%
15:00 +25°C° 0.1 mm 4 m/S 746 mmHg 59%
16:00 +25°C° 0.1 mm 4 m/S 746 mmHg 62%
17:00 +24°C° 0.1 mm 3 m/S 746 mmHg 65%
18:00 +22°C° 0.1 mm 3 m/S 746 mmHg 70%
19:00 +21°C° 0.1 mm 3 m/S 746 mmHg 74%
20:00 +20°C° 0.1 mm 2 m/S 746 mmHg 78%
21:00 +19°C° 0 mm 2 m/S 746 mmHg 80%
22:00 +19°C° 0 mm 3 m/S 746 mmHg 82%
23:00 +18°C° 0 mm 3 m/S 745 mmHg 84%

30 Juni, Mittwoch

Zeit Temperatur Niederschläge Wind Luftdruck Luftfeuchtigkeit
00:00 +18°C° 0 mm 3 m/S 745 mmHg 84%
01:00 +18°C° 0 mm 3 m/S 745 mmHg 85%
02:00 +18°C° 0 mm 2 m/S 745 mmHg 85%
03:00 +18°C° 0 mm 3 m/S 745 mmHg 85%
04:00 +18°C° 0 mm 3 m/S 745 mmHg 85%
05:00 +18°C° 0 mm 3 m/S 745 mmHg 85%
06:00 +18°C° 0 mm 3 m/S 745 mmHg 83%
07:00 +19°C° 0 mm 3 m/S 745 mmHg 81%
08:00 +19°C° 0 mm 3 m/S 745 mmHg 79%
09:00 +21°C° 0 mm 3 m/S 745 mmHg 74%
10:00 +22°C° 0 mm 3 m/S 745 mmHg 69%
11:00 +25°C° 0 mm 3 m/S 745 mmHg 64%
12:00 +26°C° 0 mm 4 m/S 744 mmHg 59%
13:00 +27°C° 0 mm 4 m/S 744 mmHg 53%
14:00 +28°C° 0 mm 4 m/S 744 mmHg 47%
15:00 +27°C° 0 mm 4 m/S 744 mmHg 51%
16:00 +27°C° 0 mm 3 m/S 744 mmHg 56%
17:00 +26°C° 0 mm 3 m/S 744 mmHg 60%
18:00 +25°C° 0 mm 2 m/S 744 mmHg 65%
19:00 +23°C° 0 mm 2 m/S 744 mmHg 70%
20:00 +21°C° 0 mm 2 m/S 744 mmHg 75%
21:00 +20°C° 0 mm 2 m/S 744 mmHg 78%
22:00 +20°C° 0 mm 1 m/S 744 mmHg 81%
23:00 +19°C° 0 mm 1 m/S 744 mmHg 83%
Mehr zeigen

Wir brauchen deine Erlaubnis

Meteoprog und unser Service Anbieter werden persönliche Daten aufbewahren, so wie Cookies, Geräte Bezeichnung oder ähnliche Technologien von deinem Gerät und Prozess, so wie Persönliche Daten Inhalte und Werbungen, genauso wie social Media und den Verkehr zu analysieren.

  • Aufbewahrung und/oder Zugang zu deiner Geräte Informationen.

    Cookies, Geräte Bezeichnung oder andere Informationen, können aufbewahrt oder Zugang zu deinem Gerät erhalten, für den Grund, der oben angegeben wird.

  • Personalisierte Werbung und Inhalte, Messungen, Einblick in das Publikum und Produkt Entwicklung.

    Werbungen und Inhalte können personalisiert werden, basierend auf ein Profil. Mehr Daten können besser personalisierte Werbungen und Inhalte hinzufügen. Werbung und Inhalte können gezeigt und gemessen werden. Einblicke über das Publikum, welche die Werbung gesehen haben und den Inhalt, können abgeleitet werden. So wie Daten können genutzt werden, um es zu verbessern oder die Benutzer Erfahrung zu verbessern das System und die Software.

Wenn du “Ich stimme zu” klickst, erlaubst du uns, die Cookies zu benutzen die Geräte Bezeichnung, den Web oder ähnliche Technologien zu benutzen. Deine Settings, können in deinem Gerät bei deinem Browser geändert werden.

Für den bestimmten Zweck, berechtigten Interessen beruhen darauf, mehr als auf den Inhalt. Du kannst mehr darüber in unseren Privaten und Cookie Politik lesen.